CTLRVL-WX Weather Reports


time (UTC)temp
F
wind
direction
speed
knots
gust
knots
rain 1hr
in
rain 24hr
in
rain mn
in
humidity
%
barometer
mb
20260503031602 38 199 4.3 0.0 0.00 0.00 0.00 69 991.2
20260503030134 38 204 3.5 0.0 0.00 0.00 0.00 69 991.2
20260503024601 38 202 3.5 0.0 0.00 0.00 0.00 64 992.1
20260503023121 39 193 3.5 0.0 0.00 0.00 0.00 69 991.5
20260503021602 39 210 3.5 0.0 0.00 0.00 0.00 69 991.5
20260503020131 39 218 4.3 0.0 0.00 0.00 0.00 69 991.5
20260503014601 40 228 4.3 0.0 0.00 0.00 0.00 58 991.1
20260503013120 40 234 4.3 0.0 0.00 0.00 0.00 58 991.1
20260503011601 41 230 4.3 0.0 0.00 0.00 0.00 58 991.1
20260503010131 42 240 4.3 0.0 0.00 0.00 0.00 58 991.1
20260503004601 42 247 4.3 0.0 0.00 0.00 0.00 46 991.9
20260503003115 43 241 4.3 0.0 0.00 0.00 0.00 46 992.0
20260503001602 44 247 4.3 0.0 0.00 0.00 0.00 46 992.0
20260503000136 45 257 3.5 0.0 0.00 0.00 0.00 46 992.0
20260502234603 46 274 4.3 0.0 0.00 0.00 0.00 38 992.0
20260502233115 47 279 5.2 0.0 0.00 0.00 0.00 38 992.0
20260502231603 47 280 6.1 0.0 0.00 0.00 0.00 38 992.0
20260502230129 48 280 7.0 0.0 0.00 0.00 0.00 38 992.0
20260502224602 48 281 7.8 0.0 0.00 0.00 0.00 37 992.3
20260502223121 48 279 7.8 0.0 0.00 0.00 0.00 37 993.0
20260502221603 48 278 8.7 0.0 0.00 0.00 0.00 37 993.0
20260502220130 48 277 9.6 0.0 0.00 0.00 0.00 37 993.0
20260502214603 48 278 9.6 0.0 0.00 0.00 0.00 37 993.2
20260502213121 48 278 9.6 0.0 0.00 0.00 0.00 40 992.9
20260502211603 48 276 9.6 0.0 0.00 0.00 0.00 40 992.8
20260502210132 48 275 9.6 0.0 0.00 0.00 0.00 40 992.8
20260502204602 48 271 8.7 0.0 0.00 0.00 0.00 40 993.3
20260502203121 48 270 8.7 0.0 0.00 0.00 0.00 38 993.7
20260502201602 48 271 8.7 0.0 0.00 0.00 0.00 38 993.7
20260502200129 48 272 9.6 0.0 0.00 0.00 0.00 38 993.7
20260502194603 48 274 9.6 0.0 0.00 0.00 0.00 32 994.0
20260502193116 48 275 10.4 0.0 0.00 0.00 0.00 32 994.0
20260502191603 48 279 10.4 0.0 0.00 0.00 0.00 32 994.0
20260502190130 48 281 9.6 0.0 0.00 0.00 0.00 32 994.0
20260502184603 48 280 10.4 0.0 0.00 0.00 0.00 41 993.9
20260502183122 47 286 9.6 0.0 0.00 0.00 0.00 42 993.9
20260502181602 47 286 9.6 0.0 0.00 0.00 0.00 42 993.9
20260502180136 46 284 9.6 0.0 0.00 0.00 0.00 42 993.9
20260502170126 46 279 7.8 0.0 0.00 0.00 0.00 43 994.4
20260502163122 46 279 7.8 0.0 0.00 0.00 0.00 41 993.3
20260502161602 45 282 7.0 0.0 0.00 0.00 0.00 41 993.3
20260502160133 45 286 6.1 0.0 0.00 0.00 0.00 41 993.3
20260502151603 43 298 6.1 0.0 0.00 0.00 0.00 53 993.6
20260502150135 42 297 6.1 0.0 0.00 0.00 0.00 53 993.6
20260502130131 37 331 3.5 0.0 0.00 0.00 0.00 75 994.0
20260502123120 35 320 2.6 0.0 0.00 0.00 0.00 80 994.2
20260502121603 34 320 2.6 0.0 0.00 0.00 0.00 80 994.2
20260502120144 33 310 2.6 0.0 0.00 0.00 0.00 80 994.2
20260502114603 33 300 2.6 0.0 0.00 0.00 0.00 86 994.1
20260502113124 32 278 0.9 0.0 0.00 0.00 0.00 88 994.1
20260502111602 31 261 0.9 0.0 0.00 0.00 0.00 88 993.9
20260502110131 31 281 0.9 0.0 0.00 0.00 0.00 88 993.9
20260502104602 31 252 0.0 0.0 0.00 0.00 0.00 88 993.7
20260502103121 31 270 0.9 0.0 0.00 0.00 0.00 89 993.9
20260502101602 31 270 0.9 0.0 0.00 0.00 0.00 89 993.9
20260502100132 31 286 0.9 0.0 0.00 0.00 0.00 89 993.9
20260502090131 31 279 1.7 0.0 0.00 0.00 0.00 88 993.5
20260502070132 31 304 2.6 0.0 0.00 0.00 0.00 83 992.7
20260502064602 32 302 2.6 0.0 0.00 0.00 0.00 76 993.8
20260502063122 32 283 2.6 0.0 0.00 0.00 0.00 77 993.7
20260502061602 32 277 2.6 0.0 0.00 0.00 0.00 77 993.7
20260502060147 32 279 3.5 0.0 0.00 0.00 0.00 77 993.7
20260502054602 32 276 3.5 0.0 0.00 0.00 0.00 74 993.1
20260502053121 33 276 3.5 0.0 0.00 0.00 0.00 79 993.5
20260502051601 33 276 3.5 0.0 0.00 0.00 0.00 79 993.5
20260502050133 33 280 2.6 0.0 0.00 0.00 0.00 79 993.5
20260502044603 33 286 2.6 0.0 0.00 0.00 0.00 74 993.0
20260502043120 34 313 2.6 0.0 0.00 0.00 0.00 79 993.1
20260502041602 33 317 2.6 0.0 0.00 0.00 0.00 79 993.0
20260502040133 34 313 3.5 0.0 0.00 0.00 0.00 79 993.0
20260502034601 34 313 3.5 0.0 0.00 0.00 0.00 70 992.6
20260502033121 34 317 3.5 0.0 0.00 0.00 0.00 75 992.0